Weather History for Morgantown, WV

Change the Weather History Date:

Wednesday, November 13, 2013

  Actual Average Record
Temperature  
Mean Temperature 29 °F 46 °F  
Max Temperature 36 °F 55 °F 74 °F (1955)
Min Temperature 21 °F 37 °F 15 °F (1986)
Degree Days  
Heating Degree Days 36 19  
Month to date heating degree days 264 224  
Since 1 July heating degree days 664 666  
Cooling Degree Days 0 0  
Month to date cooling degree days 0 0  
Year to date cooling degree days 906 813  
Moisture  
Dew Point 19 °F    
Average Humidity 70    
Maximum Humidity 92    
Minimum Humidity 47    
Precipitation  
Precipitation 0.00 in 0.12 in 0.56 in (1993)
Month to date precipitation 1.33 1.44  
Year to date precipitation 34.31 36.90  
Sea Level Pressure  
Sea Level Pressure 30.52 in    
Wind  
Wind Speed 5 mph (SW)    
Max Wind Speed 12 mph    
Max Gust Speed 17 mph    
Visibility 10 miles    
Events      
T = Trace of Precipitation, MM = Missing Value Source: NWS Daily Summary

Daily Weather History Graph

Daily Weather History Graph

Search for Another Location

Airport:

Trip Planner

Search our weather history database for the weather conditions in past years. The results will help you decide how hot, cold, wet, or windy it might be!

Date:

Astronomy

Nov. 13, 2013 Rise Set
Actual Time 7:01 AM EST 5:05 PM EST
Civil Twilight 6:33 AM EST 5:34 PM EST
Nautical Twilight 6:00 AM EST 6:06 PM EST
Astronomical Twilight 5:28 AM EST 6:38 PM EST
Moon 2:51 PM EST (11/13) 2:54 AM EST (11/13)
Length of Visible Light 11h 01m
Length of Day
10h 03m
Waxing Gibbous, 84% of the Moon is Illuminated
Nov 13
Waxing Gibbous
Nov 17
Full
Nov 25
Last Quarter
Dec 2
New
Dec 9
First Quarter

Hourly Weather History & Observations

Time (EST) Temp. Windchill Dew Point Humidity Pressure Visibility Wind Dir Wind Speed Gust Speed Precip Events Conditions
12:53 AM 26.1 °F 21.9 °F 19.0 °F 75% 30.52 in 10.0 mi WSW 3.5 mph - N/A   Clear
1:53 AM 25.0 °F - 19.0 °F 78% 30.52 in 10.0 mi Calm Calm - N/A   Mostly Cloudy
2:53 AM 25.0 °F - 19.0 °F 78% 30.52 in 10.0 mi Calm Calm - N/A   Mostly Cloudy
3:53 AM 25.0 °F 20.7 °F 19.0 °F 78% 30.52 in 10.0 mi West 3.5 mph - N/A   Overcast
4:53 AM 24.1 °F - 18.0 °F 77% 30.54 in 10.0 mi Calm Calm - N/A   Mostly Cloudy
5:53 AM 23.0 °F 18.4 °F 18.0 °F 81% 30.55 in 10.0 mi SW 3.5 mph - N/A   Clear
6:53 AM 24.1 °F 19.7 °F 19.0 °F 81% 30.56 in 10.0 mi WSW 3.5 mph - N/A   Mostly Cloudy
7:53 AM 21.9 °F 17.2 °F 19.0 °F 89% 30.58 in 10.0 mi Variable 3.5 mph - N/A   Clear
8:53 AM 25.0 °F 20.7 °F 19.9 °F 81% 30.59 in 10.0 mi Variable 3.5 mph - N/A   Clear
9:53 AM 27.0 °F 23.0 °F 21.0 °F 78% 30.58 in 10.0 mi Variable 3.5 mph - N/A   Partly Cloudy
10:53 AM 28.9 °F 25.2 °F 19.9 °F 69% 30.58 in 10.0 mi West 3.5 mph - N/A   Mostly Cloudy
11:18 AM 30.2 °F 25.4 °F 19.4 °F 64% 30.53 in 10.0 mi SW 4.6 mph - N/A   Scattered Clouds
11:53 AM 32.0 °F 27.5 °F 19.0 °F 59% 30.56 in 10.0 mi Variable 4.6 mph - N/A   Scattered Clouds
12:53 PM 33.1 °F 26.1 °F 19.9 °F 59% 30.53 in 10.0 mi WSW 8.1 mph - N/A   Scattered Clouds
1:53 PM 34.0 °F 29.8 °F 19.0 °F 54% 30.53 in 10.0 mi Variable 4.6 mph - N/A   Partly Cloudy
2:53 PM 35.1 °F 28.6 °F 18.0 °F 50% 30.51 in 10.0 mi SW 8.1 mph - N/A   Clear
3:53 PM 35.1 °F 30.1 °F 18.0 °F 50% 30.50 in 10.0 mi SW 5.8 mph - N/A   Clear
4:53 PM 34.0 °F 27.2 °F 18.0 °F 52% 30.50 in 10.0 mi SSW 8.1 mph - N/A   Clear
5:53 PM 33.1 °F 26.9 °F 19.0 °F 56% 30.51 in 10.0 mi SSW 6.9 mph - N/A   Clear
6:53 PM 30.0 °F 25.2 °F 21.0 °F 69% 30.50 in 10.0 mi South 4.6 mph - N/A   Clear
7:53 PM 30.0 °F 25.2 °F 21.0 °F 69% 30.49 in 10.0 mi Variable 4.6 mph - N/A   Clear
8:53 PM 30.0 °F 24.1 °F 21.0 °F 69% 30.48 in 10.0 mi South 5.8 mph - N/A   Clear
9:53 PM 28.9 °F 20.4 °F 21.0 °F 72% 30.47 in 10.0 mi SW 9.2 mph - N/A   Clear
10:53 PM 28.9 °F 22.8 °F 21.0 °F 72% 30.45 in 10.0 mi SSW 5.8 mph - N/A   Clear
11:53 PM 28.9 °F 21.9 °F 19.9 °F 69% 30.45 in 10.0 mi SSW 6.9 mph - N/A   Clear